sat.trackr.live / text

‹ back to catalog

STARLINK-3636

NORAD 51995 · 2022-025AR

PAYLOAD ACTIVE UNKNOWN

§ Identity

Operator
Country
US
Launch date
2022-03-09
Launch site
AFETR
Launch vehicle
Mass (kg)
RCS (m²)

Purposes: comms

External: N2YO · Heavens-Above · Gunter

§ Orbital elements

Epoch: 2026-09-20T03:01:23.814048Z

Period
94.01 min
Inclination
53.1590°
Eccentricity
0.0001213
Mean motion
15.31697716 rev/d
Perigee alt
469.9 km
Apogee alt
471.6 km
Semi-major
6,848.9 km
B*
1.6543e-5
RAAN
212.6609°
Arg perigee
95.3386°
Mean anomaly
264.7754°
Rev number
25,044

§ Raw data

STARLINK-36361 51995U 22025AR  26263.12597007  .00000148  00000+0  16543-4 0  99952 51995  53.1590 212.6609 0001213  95.3386 264.7754 15.31697716250447

JSON: /api/v1/satellites/51995 · /tle

For live sub-satellite position, see the globe view (requires WebGL).

§ Visibility from observer

Set your observer location to see the next 7 days of passes ≥ 10°. The values pass through the URL so the page stays shareable.

No JS? Fill the form by hand. The geolocation button needs JavaScript.